Time,TemperatureF,DewpointF,PressureIn,WindDirection,WindDirectionDegrees,WindSpeedMPH,WindSpeedGustMPH,Humidity,HourlyPrecipIn,Conditions,Clouds,dailyrainin,SolarRadiationWatts/m^2,SoftwareType,DateUTC
2013-04-21 00:01:00,49.5,42.9,30.26,NNE,30,0.0,0.0,78,0.00,CLR,,0.09,0.0,WeatherDisplay:10.37,2013-04-21 04:01:00,
2013-04-21 00:06:00,49.4,42.5,30.26,NNE,30,0.0,0.0,77,0.00,CLR,,0.09,0.0,WeatherDisplay:10.37,2013-04-21 04:06:00,
2013-04-21 00:11:00,49.2,42.6,30.27,NNE,30,0.0,0.0,78,0.00,CLR,,0.09,0.0,WeatherDisplay:10.37,2013-04-21 04:11:00,
2013-04-21 00:16:00,49.1,42.5,30.26,NNE,30,0.0,0.0,78,0.00,CLR,,0.09,0.0,WeatherDisplay:10.37,2013-04-21 04:16:00,
2013-04-21 00:21:00,48.9,42.7,30.26,NNE,30,0.0,0.0,79,0.00,CLR,,0.09,0.0,WeatherDisplay:10.37,2013-04-21 04:21:00,
2013-04-21 00:26:00,48.8,42.6,30.26,NNE,30,0.0,0.0,79,0.00,CLR,,0.09,0.0,WeatherDisplay:10.37,2013-04-21 04:26:00,
2013-04-21 00:31:00,48.6,42.4,30.26,NNE,30,0.0,0.0,79,0.00,CLR,,0.09,0.0,WeatherDisplay:10.37,2013-04-21 04:31:00,
2013-04-21 00:36:00,48.5,42.3,30.27,NNE,30,0.0,0.0,79,0.00,CLR,,0.09,0.0,WeatherDisplay:10.37,2013-04-21 04:36:00,
2013-04-21 00:41:00,48.3,42.1,30.27,NNE,30,0.0,0.0,79,0.00,CLR,,0.09,0.0,WeatherDisplay:10.37,2013-04-21 04:41:00,
2013-04-21 00:46:00,48.2,42.0,30.27,NNE,30,0.0,0.0,79,0.00,CLR,,0.09,0.0,WeatherDisplay:10.37,2013-04-21 04:46:00,
2013-04-21 00:51:00,48.0,41.8,30.26,NNE,30,0.0,0.0,79,0.00,CLR,,0.09,0.0,WeatherDisplay:10.37,2013-04-21 04:51:00,
2013-04-21 00:56:00,47.9,42.0,30.27,NNE,30,0.0,0.0,80,0.00,CLR,,0.09,0.0,WeatherDisplay:10.37,2013-04-21 04:56:00,
2013-04-21 01:01:00,47.7,41.8,30.27,NNE,30,0.0,0.0,80,0.00,CLR,,0.00,0.0,WeatherDisplay:10.37,2013-04-21 05:01:00,
2013-04-21 01:06:00,47.6,41.7,30.26,NNE,30,0.0,0.0,80,0.00,CLR,,0.00,0.0,WeatherDisplay:10.37,2013-04-21 05:06:00,
2013-04-21 01:11:00,47.4,41.5,30.27,NNE,30,0.0,0.0,80,0.00,CLR,,0.00,0.0,WeatherDisplay:10.37,2013-04-21 05:11:00,
2013-04-21 01:16:00,47.3,41.8,30.27,NNE,30,0.0,0.0,81,0.00,CLR,,0.00,0.0,WeatherDisplay:10.37,2013-04-21 05:16:00,
2013-04-21 01:21:00,47.1,41.6,30.27,NNE,30,0.0,0.0,81,0.00,CLR,,0.00,0.0,WeatherDisplay:10.37,2013-04-21 05:21:00,
2013-04-21 01:26:00,47.0,41.5,30.27,NNE,30,0.0,0.0,81,0.00,CLR,,0.00,0.0,WeatherDisplay:10.37,2013-04-21 05:26:00,
2013-04-21 01:31:00,46.8,41.6,30.27,NNE,30,0.0,0.0,82,0.00,CLR,,0.00,0.0,WeatherDisplay:10.37,2013-04-21 05:31:00,
2013-04-21 01:36:00,46.7,41.5,30.27,NNE,30,0.0,0.0,82,0.00,CLR,,0.00,0.0,WeatherDisplay:10.37,2013-04-21 05:36:00,
2013-04-21 01:41:00,46.5,41.3,30.27,NNE,30,0.0,0.0,82,0.00,CLR,,0.00,0.0,WeatherDisplay:10.37,2013-04-21 05:41:00,
2013-04-21 01:46:00,46.5,41.3,30.27,NNE,30,0.0,0.0,82,0.00,CLR,,0.00,0.0,WeatherDisplay:10.37,2013-04-21 05:46:00,
2013-04-21 01:51:00,46.4,41.5,30.27,NNE,30,0.0,0.0,83,0.00,CLR,,0.00,0.0,WeatherDisplay:10.37,2013-04-21 05:51:00,
2013-04-21 01:56:00,46.2,41.3,30.27,NNE,30,0.0,0.0,83,0.00,CLR,,0.00,0.0,WeatherDisplay:10.37,2013-04-21 05:56:00,
2013-04-21 02:01:00,46.2,41.3,30.27,NNE,30,0.0,0.0,83,0.00,CLR,,0.00,0.0,WeatherDisplay:10.37,2013-04-21 06:01:00,
2013-04-21 02:11:00,46.0,41.4,30.27,NNE,30,0.0,0.0,84,0.00,CLR,,0.00,0.0,WeatherDisplay:10.37,2013-04-21 06:11:00,
2013-04-21 02:16:00,45.9,41.4,30.27,NNE,30,0.0,0.0,84,0.00,CLR,,0.00,0.0,WeatherDisplay:10.37,2013-04-21 06:16:00,
2013-04-21 02:21:00,45.8,41.2,30.27,NNE,30,0.0,0.0,84,0.00,CLR,,0.00,0.0,WeatherDisplay:10.37,2013-04-21 06:21:00,
2013-04-21 02:26:00,45.7,41.1,30.27,NNE,30,0.0,0.0,84,0.00,CLR,,0.00,0.0,WeatherDisplay:10.37,2013-04-21 06:26:00,
2013-04-21 02:31:00,45.6,41.0,30.27,NNE,30,0.0,0.0,84,0.00,CLR,,0.00,0.0,WeatherDisplay:10.37,2013-04-21 06:31:00,
2013-04-21 02:36:00,45.5,41.3,30.27,NNE,30,0.0,0.0,85,0.00,CLR,,0.00,0.0,WeatherDisplay:10.37,2013-04-21 06:36:00,
2013-04-21 02:41:00,45.4,41.2,30.27,NNE,30,0.0,0.0,85,0.00,CLR,,0.00,0.0,WeatherDisplay:10.37,2013-04-21 06:41:00,
2013-04-21 02:46:00,45.2,41.0,30.27,NNE,30,0.0,0.0,85,0.00,CLR,,0.00,0.0,WeatherDisplay:10.37,2013-04-21 06:46:00,
2013-04-21 02:51:00,45.2,41.0,30.27,NNE,30,0.0,0.0,85,0.00,CLR,,0.00,0.0,WeatherDisplay:10.37,2013-04-21 06:51:00,
2013-04-21 02:56:00,45.1,40.9,30.28,NNE,30,0.0,0.0,85,0.00,CLR,,0.00,0.0,WeatherDisplay:10.37,2013-04-21 06:56:00,
2013-04-21 03:01:00,44.9,40.7,30.28,NNE,30,0.0,0.0,85,0.00,CLR,,0.00,0.0,WeatherDisplay:10.37,2013-04-21 07:01:00,
2013-04-21 03:11:00,44.8,40.6,30.28,NNE,30,0.0,0.0,85,0.00,CLR,,0.00,0.0,WeatherDisplay:10.37,2013-04-21 07:11:00,
2013-04-21 03:16:00,44.6,40.7,30.28,NNE,30,0.0,0.0,86,0.00,CLR,,0.00,0.0,WeatherDisplay:10.37,2013-04-21 07:16:00,
2013-04-21 03:21:00,44.5,40.6,30.29,NNE,30,0.0,0.0,86,0.00,CLR,,0.00,0.0,WeatherDisplay:10.37,2013-04-21 07:21:00,
2013-04-21 03:26:00,44.3,40.4,30.29,NNE,30,0.0,0.0,86,0.00,CLR,,0.00,0.0,WeatherDisplay:10.37,2013-04-21 07:26:00,
2013-04-21 03:31:00,44.3,40.4,30.29,NNE,30,0.0,0.0,86,0.00,CLR,,0.00,0.0,WeatherDisplay:10.37,2013-04-21 07:31:00,
2013-04-21 03:36:00,44.2,40.3,30.29,NNE,30,0.0,0.0,86,0.00,CLR,,0.00,0.0,WeatherDisplay:10.37,2013-04-21 07:36:00,
2013-04-21 03:41:00,44.1,40.2,30.29,NNE,30,0.0,0.0,86,0.00,CLR,,0.00,0.0,WeatherDisplay:10.37,2013-04-21 07:41:00,
2013-04-21 03:46:00,44.1,40.2,30.29,NNE,30,0.0,0.0,86,0.00,CLR,,0.00,0.0,WeatherDisplay:10.37,2013-04-21 07:46:00,
2013-04-21 03:51:00,43.9,40.0,30.30,NNE,30,0.0,0.0,86,0.00,CLR,,0.00,0.0,WeatherDisplay:10.37,2013-04-21 07:51:00,
2013-04-21 03:56:00,43.9,40.0,30.30,NNE,30,0.0,0.0,86,0.00,CLR,,0.00,0.0,WeatherDisplay:10.37,2013-04-21 07:56:00,
2013-04-21 04:01:00,43.9,40.3,30.29,NNE,30,0.0,0.0,87,0.00,CLR,,0.00,0.0,WeatherDisplay:10.37,2013-04-21 08:01:00,
2013-04-21 04:11:00,43.8,40.2,30.29,NNE,30,0.0,0.0,87,0.00,CLR,,0.00,0.0,WeatherDisplay:10.37,2013-04-21 08:11:00,
2013-04-21 04:16:00,43.8,40.2,30.29,NNE,30,0.0,0.0,87,0.00,CLR,,0.00,0.0,WeatherDisplay:10.37,2013-04-21 08:16:00,
2013-04-21 04:21:00,43.6,40.0,30.29,NNE,30,0.0,0.0,87,0.00,CLR,,0.00,0.0,WeatherDisplay:10.37,2013-04-21 08:21:00,
2013-04-21 04:26:00,43.6,40.0,30.29,NNE,30,0.0,0.0,87,0.00,CLR,,0.00,0.0,WeatherDisplay:10.37,2013-04-21 08:26:00,
2013-04-21 04:31:00,43.6,40.3,30.30,NNE,30,0.0,0.0,88,0.00,CLR,,0.00,0.0,WeatherDisplay:10.37,2013-04-21 08:31:00,
2013-04-21 04:36:00,43.6,40.3,30.30,NNE,30,0.0,0.0,88,0.00,CLR,,0.00,0.0,WeatherDisplay:10.37,2013-04-21 08:36:00,
2013-04-21 04:41:00,43.6,40.3,30.30,NNE,30,0.0,0.0,88,0.00,CLR,,0.00,0.0,WeatherDisplay:10.37,2013-04-21 08:41:00,
2013-04-21 04:46:00,43.5,40.2,30.30,NNE,30,0.0,0.0,88,0.00,CLR,,0.00,0.0,WeatherDisplay:10.37,2013-04-21 08:46:00,
2013-04-21 04:51:00,43.5,40.5,30.30,NNE,30,0.0,0.0,89,0.00,CLR,,0.00,0.0,WeatherDisplay:10.37,2013-04-21 08:51:00,
2013-04-21 04:56:00,43.5,40.2,30.30,NNE,30,0.0,0.0,88,0.00,CLR,,0.00,0.0,WeatherDisplay:10.37,2013-04-21 08:56:00,
2013-04-21 05:01:00,43.3,40.3,30.30,NNE,30,0.0,0.0,89,0.00,FEW,,0.00,0.0,WeatherDisplay:10.37,2013-04-21 09:01:00,
2013-04-21 05:11:00,43.3,40.3,30.31,NNE,30,0.0,0.0,89,0.00,FEW,,0.00,0.0,WeatherDisplay:10.37,2013-04-21 09:11:00,
2013-04-21 05:16:00,43.2,40.2,30.31,NNE,30,0.0,0.0,89,0.00,FEW,,0.00,0.0,WeatherDisplay:10.37,2013-04-21 09:16:00,
2013-04-21 05:21:00,43.2,40.2,30.31,NNE,30,0.0,0.0,89,0.00,FEW,,0.00,0.0,WeatherDisplay:10.37,2013-04-21 09:21:00,
2013-04-21 05:26:00,43.1,40.1,30.31,NNE,30,0.0,0.0,89,0.00,FEW,,0.00,0.0,WeatherDisplay:10.37,2013-04-21 09:26:00,
2013-04-21 05:31:00,43.1,40.1,30.31,NNE,30,0.0,0.0,89,0.00,FEW,,0.00,0.0,WeatherDisplay:10.37,2013-04-21 09:31:00,
2013-04-21 05:36:00,43.1,40.1,30.31,NNE,30,0.0,0.0,89,0.00,FEW,,0.00,0.0,WeatherDisplay:10.37,2013-04-21 09:36:00,
2013-04-21 05:41:00,43.1,40.4,30.32,NNE,30,0.0,0.0,90,0.00,FEW,,0.00,0.0,WeatherDisplay:10.37,2013-04-21 09:41:00,
2013-04-21 05:46:00,43.2,40.8,30.32,NNE,30,0.0,0.0,91,0.00,FEW,,0.00,0.0,WeatherDisplay:10.37,2013-04-21 09:46:00,
2013-04-21 05:51:00,43.3,40.8,30.32,NNE,30,0.0,0.0,91,0.00,FEW,,0.00,0.0,WeatherDisplay:10.37,2013-04-21 09:51:00,
2013-04-21 05:56:00,43.3,40.8,30.32,NNE,30,0.0,0.0,91,0.00,FEW,,0.00,0.0,WeatherDisplay:10.37,2013-04-21 09:56:00,
2013-04-21 06:01:00,43.3,40.8,30.32,NNE,30,0.0,0.0,91,0.00,FEW,,0.00,0.0,WeatherDisplay:10.37,2013-04-21 10:01:00,
2013-04-21 06:11:00,43.3,40.8,30.33,NNE,30,0.0,0.0,91,0.00,FEW,,0.00,0.0,WeatherDisplay:10.37,2013-04-21 10:11:00,
2013-04-21 06:16:00,43.2,40.8,30.33,NNE,30,0.0,0.0,91,0.00,FEW,,0.00,0.0,WeatherDisplay:10.37,2013-04-21 10:16:00,
2013-04-21 06:21:00,43.2,40.8,30.34,NNE,30,0.0,0.0,91,0.00,FEW,,0.00,0.0,WeatherDisplay:10.37,2013-04-21 10:21:00,
2013-04-21 06:26:00,43.2,40.8,30.34,NNE,30,0.0,0.0,91,0.00,FEW,,0.00,0.0,WeatherDisplay:10.37,2013-04-21 10:26:00,
2013-04-21 06:31:00,43.2,40.5,30.35,NNE,30,0.0,0.0,90,0.00,FEW,,0.00,0.0,WeatherDisplay:10.37,2013-04-21 10:31:00,
2013-04-21 06:36:00,43.2,40.5,30.35,North,4,0.0,0.0,90,0.00,FEW,,0.00,0.0,WeatherDisplay:10.37,2013-04-21 10:36:00,
2013-04-21 06:41:00,43.3,40.6,30.35,North,350,0.0,0.0,90,0.00,FEW,,0.00,5.8,WeatherDisplay:10.37,2013-04-21 10:41:00,
2013-04-21 06:46:00,43.3,40.3,30.36,NNW,329,0.0,0.0,89,0.00,FEW,,0.00,8.0,WeatherDisplay:10.37,2013-04-21 10:46:00,
2013-04-21 06:51:00,43.3,40.3,30.36,SW,232,0.0,0.0,89,0.00,FEW,,0.00,10.4,WeatherDisplay:10.37,2013-04-21 10:51:00,
2013-04-21 06:56:00,43.5,40.5,30.36,SE,135,0.0,0.0,89,0.00,FEW,,0.00,13.8,WeatherDisplay:10.37,2013-04-21 10:56:00,
2013-04-21 07:01:00,43.5,40.5,30.37,SE,131,0.0,0.0,89,0.00,FEW,,0.00,16.1,WeatherDisplay:10.37,2013-04-21 11:01:00,
2013-04-21 07:11:00,43.7,40.7,30.37,SE,131,0.0,0.0,89,0.00,FEW,,0.00,20.7,WeatherDisplay:10.37,2013-04-21 11:11:00,
2013-04-21 07:16:00,43.8,40.8,30.38,SE,131,0.0,0.0,89,0.00,FEW,,0.00,24.2,WeatherDisplay:10.37,2013-04-21 11:16:00,
2013-04-21 07:21:00,43.9,40.9,30.38,SE,131,0.0,0.0,89,0.00,FEW,,0.00,28.7,WeatherDisplay:10.37,2013-04-21 11:21:00,
2013-04-21 07:26:00,43.9,40.9,30.38,SE,130,0.0,0.0,89,0.00,FEW,,0.00,29.9,WeatherDisplay:10.37,2013-04-21 11:26:00,
2013-04-21 07:31:00,44.1,41.1,30.38,SE,130,0.0,0.0,89,0.00,FEW,,0.00,34.5,WeatherDisplay:10.37,2013-04-21 11:31:00,
2013-04-21 07:36:00,44.1,41.1,30.39,ESE,108,0.0,0.0,89,0.00,FEW,,0.00,36.8,WeatherDisplay:10.37,2013-04-21 11:36:00,
2013-04-21 07:41:00,44.2,41.2,30.39,ENE,67,0.0,0.0,89,0.00,FEW,,0.00,37.9,WeatherDisplay:10.37,2013-04-21 11:41:00,
2013-04-21 07:46:00,44.3,41.3,30.40,NE,39,0.0,0.0,89,0.00,FEW,,0.00,40.3,WeatherDisplay:10.37,2013-04-21 11:46:00,
2013-04-21 07:51:00,44.5,41.4,30.40,NNE,25,0.0,0.0,89,0.00,FEW,,0.00,44.8,WeatherDisplay:10.37,2013-04-21 11:51:00,
2013-04-21 07:56:00,44.5,41.5,30.40,North,352,0.0,0.0,89,0.00,FEW,,0.00,98.9,WeatherDisplay:10.37,2013-04-21 11:56:00,
2013-04-21 08:01:00,44.6,41.6,30.41,NNE,14,0.0,0.0,89,0.00,SCT,,0.00,218.5,WeatherDisplay:10.37,2013-04-21 12:01:00,
2013-04-21 08:11:00,45.1,42.1,30.41,NNE,33,0.0,0.0,89,0.00,SCT,,0.00,269.1,WeatherDisplay:10.37,2013-04-21 12:11:00,
2013-04-21 08:16:00,45.4,42.3,30.41,NNE,30,0.0,0.0,89,0.00,SCT,,0.00,189.7,WeatherDisplay:10.37,2013-04-21 12:16:00,
2013-04-21 08:21:00,45.5,42.2,30.41,NNE,30,0.0,0.0,88,0.00,SCT,,0.00,151.8,WeatherDisplay:10.37,2013-04-21 12:21:00,
2013-04-21 08:26:00,45.8,42.4,30.41,North,2,0.0,0.0,88,0.00,SCT,,0.00,71.3,WeatherDisplay:10.37,2013-04-21 12:26:00,
2013-04-21 08:31:00,46.1,42.4,30.41,NNW,346,0.0,0.0,87,0.00,SCT,,0.00,87.4,WeatherDisplay:10.37,2013-04-21 12:31:00,
2013-04-21 08:36:00,46.2,42.2,30.41,North,355,0.0,0.0,86,0.00,SCT,,0.00,93.2,WeatherDisplay:10.37,2013-04-21 12:36:00,
2013-04-21 08:41:00,46.4,42.1,30.42,North,360,0.0,0.0,85,0.00,SCT,,0.00,176.0,WeatherDisplay:10.37,2013-04-21 12:41:00,
2013-04-21 08:46:00,46.7,42.1,30.42,North,9,0.0,0.0,84,0.00,SCT,,0.00,197.8,WeatherDisplay:10.37,2013-04-21 12:46:00,
2013-04-21 08:51:00,47.0,42.1,30.42,NNE,20,0.0,0.0,83,0.00,SCT,,0.00,123.1,WeatherDisplay:10.37,2013-04-21 12:51:00,
2013-04-21 08:56:00,47.3,42.1,30.42,NNE,26,0.0,6.0,82,0.00,SCT,,0.00,120.8,WeatherDisplay:10.37,2013-04-21 12:56:00,
2013-04-21 09:01:00,47.7,42.1,30.43,NNE,16,0.0,0.0,81,0.00,BKN,,0.00,129.9,WeatherDisplay:10.37,2013-04-21 13:01:00,
2013-04-21 09:11:00,48.3,41.8,30.43,NNE,17,0.0,1.0,78,0.00,BKN,,0.00,512.9,WeatherDisplay:10.37,2013-04-21 13:11:00,
2013-04-21 09:16:00,49.1,42.5,30.43,NNE,26,0.0,1.0,78,0.00,BKN,,0.00,531.3,WeatherDisplay:10.37,2013-04-21 13:16:00,
2013-04-21 09:21:00,49.9,42.7,30.43,NNE,31,0.0,4.0,76,0.00,BKN,,0.00,570.4,WeatherDisplay:10.37,2013-04-21 13:21:00,
2013-04-21 09:26:00,50.7,42.7,30.43,NE,34,0.0,1.0,74,0.00,BKN,,0.00,565.8,WeatherDisplay:10.37,2013-04-21 13:26:00,
2013-04-21 09:31:00,51.3,42.6,30.43,NNE,31,0.0,0.0,72,0.00,BKN,,0.00,598.0,WeatherDisplay:10.37,2013-04-21 13:31:00,
2013-04-21 09:36:00,52.1,43.0,30.43,NNE,25,0.0,1.0,71,0.00,BKN,,0.00,598.0,WeatherDisplay:10.37,2013-04-21 13:36:00,
2013-04-21 09:41:00,52.8,43.6,30.43,North,1,0.0,1.0,71,0.00,BKN,,0.00,610.7,WeatherDisplay:10.37,2013-04-21 13:41:00,
2013-04-21 09:46:00,53.2,42.5,30.44,North,355,0.0,1.0,67,0.00,BKN,,0.00,655.5,WeatherDisplay:10.37,2013-04-21 13:46:00,
2013-04-21 09:51:00,53.8,43.5,30.44,NNE,13,0.0,0.0,68,0.00,BKN,,0.00,672.8,WeatherDisplay:10.37,2013-04-21 13:51:00,
2013-04-21 09:56:00,54.2,43.1,30.44,ENE,72,0.0,1.0,66,0.00,BKN,,0.00,688.8,WeatherDisplay:10.37,2013-04-21 13:56:00,
2013-04-21 10:01:00,54.7,42.8,30.44,SE,130,0.0,2.0,64,0.00,BKN,,0.00,723.4,WeatherDisplay:10.37,2013-04-21 14:01:00,
2013-04-21 10:11:00,55.7,44.1,30.44,NE,50,0.0,7.0,65,0.00,BKN,,0.00,760.2,WeatherDisplay:10.37,2013-04-21 14:11:00,
2013-04-21 10:16:00,56.0,44.0,30.45,NE,50,0.0,4.0,64,0.00,BKN,,0.00,466.9,WeatherDisplay:10.37,2013-04-21 14:16:00,
2013-04-21 10:21:00,56.2,44.6,30.45,NE,38,0.0,1.0,65,0.00,BKN,,0.00,485.3,WeatherDisplay:10.37,2013-04-21 14:21:00,
2013-04-21 10:26:00,56.2,43.3,30.45,NE,38,0.0,0.0,62,0.00,BKN,,0.00,768.2,WeatherDisplay:10.37,2013-04-21 14:26:00,
2013-04-21 10:31:00,56.3,42.6,30.46,NNE,26,0.0,1.0,60,0.00,BKN,,0.00,834.9,WeatherDisplay:10.37,2013-04-21 14:31:00,
2013-04-21 10:36:00,56.6,43.3,30.46,NNE,23,0.0,2.0,61,0.00,BKN,,0.00,818.8,WeatherDisplay:10.37,2013-04-21 14:36:00,
2013-04-21 10:41:00,57.1,42.9,30.46,NNE,28,0.0,3.0,59,0.00,BKN,,0.00,845.2,WeatherDisplay:10.37,2013-04-21 14:41:00,
2013-04-21 10:46:00,57.6,43.8,30.46,NE,45,0.0,3.0,60,0.00,BKN,,0.00,859.0,WeatherDisplay:10.37,2013-04-21 14:46:00,
2013-04-21 10:51:00,58.1,43.4,30.46,NE,48,0.0,2.0,58,0.00,BKN,,0.00,879.8,WeatherDisplay:10.37,2013-04-21 14:51:00,
2013-04-21 10:56:00,58.3,42.2,30.46,NNE,13,0.0,2.0,55,0.00,BKN,,0.00,889.0,WeatherDisplay:10.37,2013-04-21 14:56:00,
2013-04-21 11:01:00,58.4,42.8,30.46,North,359,0.0,3.0,56,0.00,BKN,,0.00,920.0,WeatherDisplay:10.37,2013-04-21 15:01:00,
2013-04-21 11:11:00,58.7,41.6,30.46,NNE,25,0.0,2.0,53,0.00,BKN,,0.00,923.4,WeatherDisplay:10.37,2013-04-21 15:11:00,
2013-04-21 11:16:00,59.0,42.9,30.46,ENE,73,1.0,5.0,55,0.00,BKN,,0.00,941.9,WeatherDisplay:10.37,2013-04-21 15:16:00,
2013-04-21 11:21:00,59.5,43.3,30.46,NE,47,0.0,0.0,55,0.00,BKN,,0.00,962.5,WeatherDisplay:10.37,2013-04-21 15:21:00,
2013-04-21 11:26:00,60.1,42.4,30.46,NE,56,0.0,2.0,52,0.00,BKN,,0.00,963.7,WeatherDisplay:10.37,2013-04-21 15:26:00,
2013-04-21 11:31:00,60.3,44.1,30.46,North,8,0.0,0.0,55,0.00,BKN,,0.00,1024.6,WeatherDisplay:10.37,2013-04-21 15:31:00,
2013-04-21 11:36:00,60.5,43.3,30.46,NNW,342,0.0,2.0,53,0.00,BKN,,0.00,981.0,WeatherDisplay:10.37,2013-04-21 15:36:00,
2013-04-21 11:41:00,60.4,43.2,30.46,NNE,16,0.0,2.0,53,0.00,BKN,,0.00,981.0,WeatherDisplay:10.37,2013-04-21 15:41:00,
2013-04-21 11:46:00,60.5,42.8,30.46,NNE,19,0.0,2.0,52,0.00,BKN,,0.00,1037.3,WeatherDisplay:10.37,2013-04-21 15:46:00,
2013-04-21 11:51:00,60.4,43.2,30.46,North,355,0.0,3.0,53,0.00,BKN,,0.00,1030.4,WeatherDisplay:10.37,2013-04-21 15:51:00,
2013-04-21 11:56:00,60.4,43.2,30.46,NNE,13,0.0,2.0,53,0.00,BKN,,0.00,949.9,WeatherDisplay:10.37,2013-04-21 15:56:00,
2013-04-21 12:01:00,60.9,43.1,30.46,NE,37,0.0,2.0,52,0.00,BKN,,0.00,1101.7,WeatherDisplay:10.37,2013-04-21 16:01:00,
2013-04-21 12:11:00,61.2,42.9,30.46,NNE,24,0.0,0.0,51,0.00,BKN,,0.00,955.7,WeatherDisplay:10.37,2013-04-21 16:11:00,
2013-04-21 12:16:00,61.6,43.3,30.46,NNE,28,0.0,0.0,51,0.00,BKN,,0.00,813.1,WeatherDisplay:10.37,2013-04-21 16:16:00,
2013-04-21 12:21:00,61.8,44.0,30.45,NNE,31,0.0,1.0,52,0.00,BKN,,0.00,954.5,WeatherDisplay:10.37,2013-04-21 16:21:00,
2013-04-21 12:26:00,62.0,45.2,30.46,NNE,29,0.0,0.0,54,0.00,BKN,,0.00,1101.7,WeatherDisplay:10.37,2013-04-21 16:26:00,
2013-04-21 12:31:00,62.1,42.7,30.46,NE,44,0.0,13.0,49,0.00,BKN,,0.00,1093.6,WeatherDisplay:10.37,2013-04-21 16:31:00,
2013-04-21 12:36:00,62.4,43.5,30.45,NNE,29,0.0,13.0,50,0.00,BKN,,0.00,1107.4,WeatherDisplay:10.37,2013-04-21 16:36:00,
2013-04-21 12:41:00,62.7,45.3,30.45,NNE,18,0.0,0.0,53,0.00,BKN,,0.00,1176.4,WeatherDisplay:10.37,2013-04-21 16:41:00,
2013-04-21 12:46:00,63.1,43.1,30.45,North,11,0.0,2.0,48,0.00,BKN,,0.00,301.3,WeatherDisplay:10.37,2013-04-21 16:46:00,
2013-04-21 12:51:00,62.4,43.5,30.45,North,355,0.0,1.0,50,0.00,BKN,,0.00,1117.8,WeatherDisplay:10.37,2013-04-21 16:51:00,
2013-04-21 12:56:00,62.0,42.1,30.44,North,7,1.0,5.0,48,0.00,BKN,,0.00,760.2,WeatherDisplay:10.37,2013-04-21 16:56:00,
2013-04-21 13:01:00,62.1,43.2,30.44,NNE,32,0.0,0.0,50,0.00,BKN,,0.00,1097.1,WeatherDisplay:10.37,2013-04-21 17:01:00,
2013-04-21 13:11:00,62.1,43.2,30.44,NE,34,0.0,3.0,50,0.00,BKN,,0.00,1197.2,WeatherDisplay:10.37,2013-04-21 17:11:00,
2013-04-21 13:16:00,62.6,44.7,30.44,NNE,30,0.0,2.0,52,0.00,BKN,,0.00,263.3,WeatherDisplay:10.37,2013-04-21 17:16:00,
2013-04-21 13:21:00,62.4,41.9,30.44,NE,56,0.0,1.0,47,0.00,BKN,,0.00,1158.1,WeatherDisplay:10.37,2013-04-21 17:21:00,
2013-04-21 13:26:00,62.9,44.0,30.44,East,99,0.0,5.0,50,0.00,BKN,,0.00,1125.9,WeatherDisplay:10.37,2013-04-21 17:26:00,
2013-04-21 13:31:00,62.9,44.0,30.44,NE,50,0.0,0.0,50,0.00,BKN,,0.00,1125.9,WeatherDisplay:10.37,2013-04-21 17:31:00,
2013-04-21 13:36:00,62.4,43.0,30.44,NE,44,0.0,0.0,49,0.00,BKN,,0.00,1173.0,WeatherDisplay:10.37,2013-04-21 17:36:00,
2013-04-21 13:41:00,62.7,44.8,30.43,NNE,28,0.0,3.0,52,0.00,BKN,,0.00,1125.9,WeatherDisplay:10.37,2013-04-21 17:41:00,
2013-04-21 13:46:00,62.9,43.4,30.43,NNE,17,0.0,1.0,49,0.00,BKN,,0.00,347.3,WeatherDisplay:10.37,2013-04-21 17:46:00,
2013-04-21 13:51:00,62.7,42.7,30.44,East,89,0.0,2.0,48,0.00,BKN,,0.00,384.1,WeatherDisplay:10.37,2013-04-21 17:51:00,
2013-04-21 13:56:00,62.8,42.8,30.44,East,83,0.0,1.0,48,0.00,BKN,,0.00,330.0,WeatherDisplay:10.37,2013-04-21 17:56:00,
2013-04-21 14:01:00,63.1,42.5,30.44,NNE,30,1.0,5.0,47,0.00,BKN,,0.00,346.1,WeatherDisplay:10.37,2013-04-21 18:01:00,
2013-04-21 14:11:00,62.9,41.8,30.44,NNE,22,1.0,3.0,46,0.00,BKN,,0.00,357.7,WeatherDisplay:10.37,2013-04-21 18:11:00,
2013-04-21 14:16:00,62.9,42.9,30.43,NNE,30,0.0,0.0,48,0.00,BKN,,0.00,1117.8,WeatherDisplay:10.37,2013-04-21 18:16:00,
2013-04-21 14:21:00,62.9,42.9,30.43,NE,40,0.0,1.0,48,0.00,BKN,,0.00,1125.9,WeatherDisplay:10.37,2013-04-21 18:21:00,
2013-04-21 14:26:00,63.5,43.4,30.43,ENE,72,0.0,1.0,48,0.00,BKN,,0.00,315.1,WeatherDisplay:10.37,2013-04-21 18:26:00,
2013-04-21 14:31:00,63.9,43.8,30.43,NE,43,0.0,3.0,48,0.00,BKN,,0.00,1232.8,WeatherDisplay:10.37,2013-04-21 18:31:00,
2013-04-21 14:36:00,63.9,43.3,30.43,NNE,27,0.0,1.0,47,0.00,BKN,,0.00,179.4,WeatherDisplay:10.37,2013-04-21 18:36:00,
2013-04-21 14:41:00,63.5,43.4,30.43,North,360,0.0,0.0,48,0.00,BKN,,0.00,357.7,WeatherDisplay:10.37,2013-04-21 18:41:00,
2013-04-21 14:46:00,63.5,42.3,30.43,NNE,22,0.0,1.0,46,0.00,BKN,,0.00,253.0,WeatherDisplay:10.37,2013-04-21 18:46:00,
2013-04-21 14:51:00,63.2,44.2,30.43,NNE,22,0.0,0.0,50,0.00,BKN,,0.00,1048.8,WeatherDisplay:10.37,2013-04-21 18:51:00,
2013-04-21 14:56:00,63.9,43.8,30.43,NE,53,0.0,1.0,48,0.00,BKN,,0.00,1045.4,WeatherDisplay:10.37,2013-04-21 18:56:00,
2013-04-21 15:01:00,64.5,42.7,30.42,East,92,0.0,6.0,45,0.00,BKN,,0.00,1087.9,WeatherDisplay:10.37,2013-04-21 19:01:00,
2013-04-21 15:11:00,64.9,42.5,30.42,NE,44,0.0,2.0,44,0.00,BKN,,0.00,1138.5,WeatherDisplay:10.37,2013-04-21 19:11:00,
2013-04-21 15:16:00,64.9,40.6,30.42,East,95,0.0,5.0,41,0.00,BKN,,0.00,1085.6,WeatherDisplay:10.37,2013-04-21 19:16:00,
2013-04-21 15:21:00,65.0,43.7,30.42,NE,40,0.0,1.0,46,0.00,BKN,,0.00,1067.2,WeatherDisplay:10.37,2013-04-21 19:21:00,
2013-04-21 15:26:00,65.2,43.3,30.42,NNE,15,0.0,2.0,45,0.00,BKN,,0.00,187.4,WeatherDisplay:10.37,2013-04-21 19:26:00,
2013-04-21 15:31:00,64.6,41.5,30.41,NE,42,0.0,1.0,43,0.00,BKN,,0.00,982.1,WeatherDisplay:10.37,2013-04-21 19:31:00,
2013-04-21 15:36:00,64.2,43.0,30.41,NE,35,0.0,0.0,46,0.00,BKN,,0.00,997.1,WeatherDisplay:10.37,2013-04-21 19:36:00,
2013-04-21 15:41:00,64.1,42.4,30.41,NNE,15,0.0,0.0,45,0.00,BKN,,0.00,1022.4,WeatherDisplay:10.37,2013-04-21 19:41:00,
2013-04-21 15:46:00,64.0,42.8,30.41,NNE,26,0.0,0.0,46,0.00,BKN,,0.00,1008.6,WeatherDisplay:10.37,2013-04-21 19:46:00,
2013-04-21 15:51:00,64.0,43.4,30.41,NE,45,0.0,0.0,47,0.00,BKN,,0.00,240.3,WeatherDisplay:10.37,2013-04-21 19:51:00,
2013-04-21 15:56:00,63.9,42.7,30.41,NNE,33,0.0,0.0,46,0.00,BKN,,0.00,210.4,WeatherDisplay:10.37,2013-04-21 19:56:00,
2013-04-21 16:01:00,63.6,42.4,30.41,North,11,0.0,0.0,46,0.00,BKN,,0.00,138.0,WeatherDisplay:10.37,2013-04-21 20:01:00,
2013-04-21 16:11:00,63.3,42.7,30.40,ENE,73,0.0,0.0,47,0.00,BKN,,0.00,895.8,WeatherDisplay:10.37,2013-04-21 20:11:00,
2013-04-21 16:16:00,63.9,41.6,30.40,NE,51,0.0,1.0,44,0.00,BKN,,0.00,863.7,WeatherDisplay:10.37,2013-04-21 20:16:00,
2013-04-21 16:21:00,63.9,42.1,30.41,NNE,28,0.0,2.0,45,0.00,BKN,,0.00,101.2,WeatherDisplay:10.37,2013-04-21 20:21:00,
2013-04-21 16:26:00,63.6,42.4,30.40,NNE,20,0.0,1.0,46,0.00,BKN,,0.00,151.8,WeatherDisplay:10.37,2013-04-21 20:26:00,
2013-04-21 16:36:00,63.2,42.1,30.40,NNE,14,0.0,3.0,46,0.00,BKN,,0.00,834.9,WeatherDisplay:10.37,2013-04-21 20:36:00,
2013-04-21 16:41:00,63.4,42.8,30.40,NNE,20,0.0,0.0,47,0.00,BKN,,0.00,228.9,WeatherDisplay:10.37,2013-04-21 20:41:00,
2013-04-21 16:46:00,63.2,42.1,30.40,NE,40,0.0,1.0,46,0.00,BKN,,0.00,178.3,WeatherDisplay:10.37,2013-04-21 20:46:00,
2013-04-21 16:51:00,63.0,42.4,30.40,East,86,0.0,1.0,47,0.00,BKN,,0.00,154.1,WeatherDisplay:10.37,2013-04-21 20:51:00,
2013-04-21 16:56:00,62.6,42.1,30.40,East,95,0.0,0.0,47,0.00,BKN,,0.00,650.9,WeatherDisplay:10.37,2013-04-21 20:56:00,
2013-04-21 17:01:00,62.7,41.6,30.40,ENE,70,0.0,0.0,46,0.00,BKN,,0.00,736.0,WeatherDisplay:10.37,2013-04-21 21:01:00,
2013-04-21 17:11:00,63.2,41.5,30.40,ESE,107,0.0,0.0,45,0.00,BKN,,0.00,197.8,WeatherDisplay:10.37,2013-04-21 21:11:00,
2013-04-21 17:16:00,63.1,42.5,30.40,ENE,59,0.0,0.0,47,0.00,BKN,,0.00,630.2,WeatherDisplay:10.37,2013-04-21 21:16:00,
2013-04-21 17:21:00,62.9,41.8,30.40,North,10,0.0,0.0,46,0.00,BKN,,0.00,120.8,WeatherDisplay:10.37,2013-04-21 21:21:00,
2013-04-21 17:26:00,62.6,42.1,30.40,NNW,327,0.0,0.0,47,0.00,BKN,,0.00,112.7,WeatherDisplay:10.37,2013-04-21 21:26:00,
2013-04-21 17:31:00,62.3,41.2,30.40,NNW,330,0.0,0.0,46,0.00,BKN,,0.00,106.9,WeatherDisplay:10.37,2013-04-21 21:31:00,
2013-04-21 17:36:00,62.0,41.5,30.40,East,86,0.0,0.0,47,0.00,BKN,,0.00,170.2,WeatherDisplay:10.37,2013-04-21 21:36:00,
2013-04-21 17:41:00,61.8,41.9,30.40,ESE,103,0.0,0.0,48,0.00,BKN,,0.00,517.5,WeatherDisplay:10.37,2013-04-21 21:41:00,
2013-04-21 17:46:00,62.1,43.2,30.40,ESE,103,0.0,0.0,50,0.00,BKN,,0.00,471.5,WeatherDisplay:10.37,2013-04-21 21:46:00,
2013-04-21 17:51:00,62.4,41.3,30.40,ESE,110,0.0,0.0,46,0.00,BKN,,0.00,213.9,WeatherDisplay:10.37,2013-04-21 21:51:00,
2013-04-21 17:56:00,62.4,42.4,30.40,SE,129,0.0,0.0,48,0.00,BKN,,0.00,293.3,WeatherDisplay:10.37,2013-04-21 21:56:00,
2013-04-21 18:01:00,62.4,40.8,30.40,East,93,0.0,0.0,45,0.00,BKN,,0.00,95.4,WeatherDisplay:10.37,2013-04-21 22:01:00,
2013-04-21 18:11:00,62.1,41.6,30.40,SW,222,0.0,0.0,47,0.00,BKN,,0.00,72.4,WeatherDisplay:10.37,2013-04-21 22:11:00,
2013-04-21 18:16:00,61.7,40.1,30.40,SW,225,0.0,1.0,45,0.00,BKN,,0.00,85.1,WeatherDisplay:10.37,2013-04-21 22:16:00,
2013-04-21 18:21:00,61.3,40.3,30.40,NE,45,0.0,0.0,46,0.00,BKN,,0.00,112.7,WeatherDisplay:10.37,2013-04-21 22:21:00,
2013-04-21 18:26:00,61.0,41.7,30.40,NE,46,0.0,0.0,49,0.00,BKN,,0.00,151.8,WeatherDisplay:10.37,2013-04-21 22:26:00,
2013-04-21 18:31:00,60.6,40.8,30.40,NE,48,0.0,0.0,48,0.00,BKN,,0.00,125.4,WeatherDisplay:10.37,2013-04-21 22:31:00,
2013-04-21 18:36:00,60.4,41.1,30.40,East,88,0.0,1.0,49,0.00,BKN,,0.00,79.4,WeatherDisplay:10.37,2013-04-21 22:36:00,
2013-04-21 18:41:00,60.2,40.4,30.40,South,183,0.0,0.0,48,0.00,BKN,,0.00,54.0,WeatherDisplay:10.37,2013-04-21 22:41:00,
2013-04-21 18:46:00,60.1,40.3,30.40,SSE,161,0.0,0.0,48,0.00,BKN,,0.00,50.6,WeatherDisplay:10.37,2013-04-21 22:46:00,
2013-04-21 18:51:00,59.9,41.2,30.40,SE,135,0.0,0.0,50,0.00,BKN,,0.00,50.6,WeatherDisplay:10.37,2013-04-21 22:51:00,
2013-04-21 18:56:00,59.6,40.9,30.40,ESE,120,0.0,0.0,50,0.00,BKN,,0.00,50.6,WeatherDisplay:10.37,2013-04-21 22:56:00,
2013-04-21 19:01:00,59.4,41.7,30.40,ESE,103,0.0,0.0,52,0.00,BKN,,0.00,37.9,WeatherDisplay:10.37,2013-04-21 23:01:00,
2013-04-21 19:11:00,59.0,40.9,30.40,ENE,75,0.0,0.0,51,0.00,BKN,,0.00,29.9,WeatherDisplay:10.37,2013-04-21 23:11:00,
2013-04-21 19:16:00,58.7,41.6,30.40,ENE,74,0.0,0.0,53,0.00,BKN,,0.00,28.7,WeatherDisplay:10.37,2013-04-21 23:16:00,
2013-04-21 19:21:00,58.4,41.4,30.40,ENE,78,0.0,0.0,53,0.00,BKN,,0.00,21.8,WeatherDisplay:10.37,2013-04-21 23:21:00,
2013-04-21 19:26:00,58.2,40.6,30.41,East,80,0.0,0.0,52,0.00,BKN,,0.00,18.4,WeatherDisplay:10.37,2013-04-21 23:26:00,
2013-04-21 19:31:00,58.0,41.0,30.41,East,81,0.0,0.0,53,0.00,BKN,,0.00,13.8,WeatherDisplay:10.37,2013-04-21 23:31:00,
2013-04-21 19:36:00,57.7,40.7,30.41,East,82,0.0,0.0,53,0.00,BKN,,0.00,12.6,WeatherDisplay:10.37,2013-04-21 23:36:00,
2013-04-21 19:41:00,57.5,41.0,30.41,East,82,0.0,0.0,54,0.00,BKN,,0.00,10.4,WeatherDisplay:10.37,2013-04-21 23:41:00,
2013-04-21 19:46:00,57.3,41.3,30.41,East,82,0.0,0.0,55,0.00,BKN,,0.00,5.8,WeatherDisplay:10.37,2013-04-21 23:46:00,
2013-04-21 19:51:00,57.0,41.4,30.41,East,82,0.0,0.0,56,0.00,BKN,,0.00,0.0,WeatherDisplay:10.37,2013-04-21 23:51:00,
2013-04-21 19:56:00,56.7,41.2,30.41,East,82,0.0,0.0,56,0.00,BKN,,0.00,0.0,WeatherDisplay:10.37,2013-04-21 23:56:00,
2013-04-21 20:01:00,56.6,42.0,30.42,East,82,0.0,0.0,58,0.00,SCT,,0.00,0.0,WeatherDisplay:10.37,2013-04-22 00:01:00,
2013-04-21 20:11:00,56.0,41.0,30.42,East,82,0.0,0.0,57,0.00,SCT,,0.00,0.0,WeatherDisplay:10.37,2013-04-22 00:11:00,
2013-04-21 20:16:00,55.7,41.6,30.42,East,82,0.0,0.0,59,0.00,SCT,,0.00,0.0,WeatherDisplay:10.37,2013-04-22 00:16:00,
2013-04-21 20:21:00,55.4,41.8,30.42,East,82,0.0,0.0,60,0.00,SCT,,0.00,0.0,WeatherDisplay:10.37,2013-04-22 00:21:00,
2013-04-21 20:26:00,55.2,41.1,30.43,East,82,0.0,0.0,59,0.00,SCT,,0.00,0.0,WeatherDisplay:10.37,2013-04-22 00:26:00,
2013-04-21 20:36:00,54.7,40.6,30.43,East,82,0.0,0.0,59,0.00,SCT,,0.00,0.0,WeatherDisplay:10.37,2013-04-22 00:36:00,
2013-04-21 20:41:00,54.5,40.9,30.43,East,82,0.0,0.0,60,0.00,SCT,,0.00,0.0,WeatherDisplay:10.37,2013-04-22 00:41:00,
2013-04-21 20:46:00,54.2,40.6,30.43,East,82,0.0,0.0,60,0.00,SCT,,0.00,0.0,WeatherDisplay:10.37,2013-04-22 00:46:00,
2013-04-21 20:51:00,54.0,41.3,30.44,East,82,0.0,0.0,62,0.00,SCT,,0.00,0.0,WeatherDisplay:10.37,2013-04-22 00:51:00,
2013-04-21 20:56:00,53.8,41.1,30.44,East,82,0.0,0.0,62,0.00,SCT,,0.00,0.0,WeatherDisplay:10.37,2013-04-22 00:56:00,
2013-04-21 21:01:00,53.6,40.8,30.44,East,82,0.0,0.0,62,0.00,SCT,,0.00,0.0,WeatherDisplay:10.37,2013-04-22 01:01:00,
2013-04-21 21:11:00,53.2,40.9,30.45,East,82,0.0,0.0,63,0.00,SCT,,0.00,0.0,WeatherDisplay:10.37,2013-04-22 01:11:00,
2013-04-21 21:16:00,52.9,41.0,30.45,East,82,0.0,0.0,64,0.00,SCT,,0.00,0.0,WeatherDisplay:10.37,2013-04-22 01:16:00,
2013-04-21 21:21:00,52.8,41.4,30.45,East,82,0.0,0.0,65,0.00,SCT,,0.00,0.0,WeatherDisplay:10.37,2013-04-22 01:21:00,
2013-04-21 21:26:00,52.6,41.2,30.46,East,82,0.0,0.0,65,0.00,SCT,,0.00,0.0,WeatherDisplay:10.37,2013-04-22 01:26:00,
2013-04-21 21:31:00,52.4,40.9,30.46,East,82,0.0,0.0,65,0.00,SCT,,0.00,0.0,WeatherDisplay:10.37,2013-04-22 01:31:00,
2013-04-21 21:36:00,52.2,41.2,30.46,East,82,0.0,0.0,66,0.00,SCT,,0.00,0.0,WeatherDisplay:10.37,2013-04-22 01:36:00,
2013-04-21 21:41:00,52.0,41.0,30.46,East,82,0.0,0.0,66,0.00,SCT,,0.00,0.0,WeatherDisplay:10.37,2013-04-22 01:41:00,
2013-04-21 21:46:00,51.9,41.3,30.46,East,82,0.0,0.0,67,0.00,SCT,,0.00,0.0,WeatherDisplay:10.37,2013-04-22 01:46:00,
2013-04-21 21:51:00,51.7,41.1,30.46,East,82,0.0,0.0,67,0.00,SCT,,0.00,0.0,WeatherDisplay:10.37,2013-04-22 01:51:00,
2013-04-21 21:56:00,51.6,41.4,30.46,East,82,0.0,0.0,68,0.00,SCT,,0.00,0.0,WeatherDisplay:10.37,2013-04-22 01:56:00,
2013-04-21 22:01:00,51.4,41.6,30.46,East,82,0.0,0.0,69,0.00,FEW,,0.00,0.0,WeatherDisplay:10.37,2013-04-22 02:01:00,
2013-04-21 22:11:00,51.1,40.9,30.46,East,82,0.0,0.0,68,0.00,FEW,,0.00,0.0,WeatherDisplay:10.37,2013-04-22 02:11:00,
2013-04-21 22:16:00,51.0,40.8,30.46,East,82,0.0,0.0,68,0.00,FEW,,0.00,0.0,WeatherDisplay:10.37,2013-04-22 02:16:00,
2013-04-21 22:21:00,50.8,40.6,30.46,East,82,0.0,0.0,68,0.00,FEW,,0.00,0.0,WeatherDisplay:10.37,2013-04-22 02:21:00,
2013-04-21 22:26:00,50.7,40.9,30.46,East,82,0.0,0.0,69,0.00,FEW,,0.00,0.0,WeatherDisplay:10.37,2013-04-22 02:26:00,
2013-04-21 22:31:00,50.5,41.1,30.46,East,82,0.0,0.0,70,0.00,FEW,,0.00,0.0,WeatherDisplay:10.37,2013-04-22 02:31:00,
2013-04-21 22:36:00,50.4,41.3,30.46,East,82,0.0,0.0,71,0.00,FEW,,0.00,0.0,WeatherDisplay:10.37,2013-04-22 02:36:00,
2013-04-21 22:41:00,50.2,41.2,30.46,East,82,0.0,0.0,71,0.00,FEW,,0.00,0.0,WeatherDisplay:10.37,2013-04-22 02:41:00,
2013-04-21 22:46:00,50.1,41.1,30.46,East,82,0.0,0.0,71,0.00,FEW,,0.00,0.0,WeatherDisplay:10.37,2013-04-22 02:46:00,
2013-04-21 22:51:00,49.9,40.9,30.46,East,82,0.0,0.0,71,0.00,FEW,,0.00,0.0,WeatherDisplay:10.37,2013-04-22 02:51:00,
2013-04-21 22:56:00,49.8,41.1,30.46,East,82,0.0,0.0,72,0.00,FEW,,0.00,0.0,WeatherDisplay:10.37,2013-04-22 02:56:00,
2013-04-21 23:01:00,49.6,40.9,30.45,East,82,0.0,0.0,72,0.00,FEW,,0.00,0.0,WeatherDisplay:10.37,2013-04-22 03:01:00,
2013-04-21 23:11:00,49.5,41.2,30.45,East,82,0.0,0.0,73,0.00,FEW,,0.00,0.0,WeatherDisplay:10.37,2013-04-22 03:11:00,
2013-04-21 23:16:00,49.4,40.7,30.45,East,82,0.0,0.0,72,0.00,FEW,,0.00,0.0,WeatherDisplay:10.37,2013-04-22 03:16:00,
2013-04-21 23:21:00,49.2,40.6,30.45,East,81,0.0,0.0,72,0.00,FEW,,0.00,0.0,WeatherDisplay:10.37,2013-04-22 03:21:00,
2013-04-21 23:26:00,49.1,40.5,30.45,North,2,0.0,0.0,72,0.00,FEW,,0.00,0.0,WeatherDisplay:10.37,2013-04-22 03:26:00,
2013-04-21 23:31:00,49.1,40.5,30.45,WNW,285,0.0,0.0,72,0.00,FEW,,0.00,0.0,WeatherDisplay:10.37,2013-04-22 03:31:00,
2013-04-21 23:36:00,48.9,40.3,30.45,West,273,0.0,0.0,72,0.00,FEW,,0.00,0.0,WeatherDisplay:10.37,2013-04-22 03:36:00,
2013-04-21 23:41:00,48.8,40.2,30.45,West,273,0.0,0.0,72,0.00,FEW,,0.00,0.0,WeatherDisplay:10.37,2013-04-22 03:41:00,
2013-04-21 23:46:00,48.6,40.0,30.45,West,273,0.0,0.0,72,0.00,FEW,,0.00,0.0,WeatherDisplay:10.37,2013-04-22 03:46:00,
2013-04-21 23:51:00,48.5,39.9,30.45,West,273,0.0,0.0,72,0.00,FEW,,0.00,0.0,WeatherDisplay:10.37,2013-04-22 03:51:00,
2013-04-21 23:56:00,48.5,40.2,30.46,West,273,0.0,0.0,73,0.00,FEW,,0.00,0.0,WeatherDisplay:10.37,2013-04-22 03:56:00,